This is the latest recevied weather packets stored in our database for station/object KD9JJA. If no packets are shown the sender has not sent any weather packets the latest 10 day(s).
| Time | Temp. | Humidity | Pressure | Rain* | Wind** | Luminosity | Snow |
|---|---|---|---|---|---|---|---|
| 1777632866 | 10.56° C | 89% | 1013.9 hPa | 0 mm | - | 0 W/m² | - |
| 1777632561 | 11.11° C | 89% | 1013.9 hPa | 0 mm | - | 0 W/m² | - |
| 1777632260 | 10.56° C | 89% | 1013.9 hPa | 0 mm | - | 0 W/m² | - |
| 1777631956 | 10.56° C | 89% | 1014 hPa | 0 mm | - | 0 W/m² | - |
| 1777631654 | 10.56° C | 89% | 1014 hPa | 0 mm | - | 0 W/m² | - |
| 1777631346 | 10.56° C | 90% | 1014.2 hPa | 0 mm | - | 0 W/m² | - |
| 1777631043 | 10.56° C | 87% | 1014.3 hPa | 0 mm | - | 0 W/m² | - |
| 1777630739 | 10.56° C | 87% | 1013.9 hPa | 0 mm | - | 0 W/m² | - |
| 1777630436 | 10.56° C | 87% | 1014 hPa | 0 mm | - | 0 W/m² | - |
| 1777630134 | 10.56° C | 86% | 1014.2 hPa | 0 mm | - | 0 W/m² | - |
| 1777629831 | 11.11° C | 84% | 1014.6 hPa | 0 mm | - | 0 W/m² | - |
| 1777629528 | 11.11° C | 84% | 1014.2 hPa | 0 mm | - | 0 W/m² | - |
| 1777629223 | 11.11° C | 83% | 1014.4 hPa | 0 mm | - | 0 W/m² | - |
| 1777628920 | 11.11° C | 82% | 1014.3 hPa | 0 mm | - | 0 W/m² | - |
| 1777628617 | 11.11° C | 80% | 1014.4 hPa | 0 mm | - | 0 W/m² | - |
| 1777628312 | 11.11° C | 81% | 1014.2 hPa | 0 mm | - | 0 W/m² | - |
| 1777628009 | 11.11° C | 80% | 1014.4 hPa | 0 mm | - | 0 W/m² | - |
| 1777627708 | 11.67° C | 81% | 1014.4 hPa | 0 mm | - | 0 W/m² | - |
| 1777627407 | 11.67° C | 78% | 1014.3 hPa | 0 mm | - | 0 W/m² | - |
| 1777627105 | 11.67° C | 82% | 1014.6 hPa | 0 mm | - | 0 W/m² | - |
| 1777626801 | 11.67° C | 80% | 1014.4 hPa | 0 mm | - | 0 W/m² | - |
| 1777626497 | 11.11° C | 80% | 1014.4 hPa | 0 mm | - | 0 W/m² | - |
| 1777626197 | 11.11° C | 79% | 1014.3 hPa | 0 mm | - | 0 W/m² | - |
| 1777625895 | 11.11° C | 79% | 1014.5 hPa | 0 mm | - | 0 W/m² | - |
| 1777625591 | 10.56° C | 80% | 1014.5 hPa | 0 mm | - | 0 W/m² | - |
* Rain latest hour (hover to see other rain measurements)
** Current wind speed in m/s (hover to see current wind gust speed)